Regional Weather Roundup
Issued by NWS

Home | Current Version | Previous Version | Graphics & Text | Print | Product List | Glossary On
Versions: 1 2 3 4 5 6 7 8 9 10 11 12 13 14 15 16 17 18 19 20 21 22 23 24 25 26 27 28 29 30 31 32 33 34 35 36 37 38 39 40 41 42 43 44 45 46 47 48 49 50
124
ASUS45 KCYS 262310
RWRWY

WYOMING REGIONAL WEATHER ROUNDUP
NATIONAL WEATHER SERVICE CHEYENNE WY
400 PM MST SUN FEB 26 2017

NOTE:  "FAIR" INDICATES FEW OR NO CLOUDS BELOW 12,000 FEET
WITH NO SIGNIFICANT WEATHER AND/OR OBSTRUCTIONS TO VISIBILITY.

WYZ001-270000-
YELLOWSTONE NATIONAL PARK

CITY           SKY/WX    TMP DP  RH WIND       PRES   REMARKS
LK YELLOWSTONE   N/A     15   3  59 VRB7      29.63S WCI   5
W YELLOWSTONE  NOT AVBL

$$
WYZ002>013-054>058-071-098>099-270000-
NORTHERN WYOMING

CITY           SKY/WX    TMP DP  RH WIND       PRES   REMARKS
JACKSON        PTSUNNY   21  12  68 S23       29.69  WCI   5
CODY           FAIR      30   7  37 S15       29.64F WCI  19
GREYBULL       FAIR      31  11  43 SE8       29.70F WCI  23
WORLAND        FAIR      31  11  43 S7        29.69F WCI  24
SHERIDAN       PTSUNNY   34  12  40 S9        29.69F WCI  27
BUFFALO        PTSUNNY   26   7  44 S7        29.69S WCI  18
GILLETTE       FAIR      32   8  36 SW12      29.70S WCI  23
HULETT         CLOUDY    32   9  37 NW5       29.72S WCI  27
NEWCASTLE      FAIR      27  14  59 SE6       29.77F WCI  20

$$
WYZ014>020-022>026-101>103-270000-
CENTRAL WYOMING

CITY           SKY/WX    TMP DP  RH WIND       PRES   REMARKS
BIG PINEY      FAIR      12   5  73 NE5       29.73F WCI   4
PINEDALE       FAIR      12   3  67 E5        29.74F WCI   4
DUBOIS         FAIR      19   3  49 W18G25    29.61S WCI   4
LANDER         FAIR      23   4  44 SE6       29.66F WCI  16
RIVERTON       FAIR      23   4  44 S9        29.68F WCI  13
CASPER         FAIR      24  10  55 SW26G38   29.72F WCI   8
DOUGLAS        FAIR      24  12  60 W13       29.75F WCI  12

$$
WYZ021-027>030-104>119-270000-
SOUTHERN WYOMING

CITY           SKY/WX    TMP DP  RH WIND       PRES   REMARKS
EVANSTON       FAIR      22   8  55 SW16      29.71F WCI   8
KEMMERER         N/A     21   9  58 W7        29.72F WCI  13
FORT BRIDGER   FAIR      25  10  53 E3        29.75S
ROCK SPRINGS   FAIR      21   5  50 SW10      29.76F WCI  10
DIXON            N/A     28   2  33 W15       29.82F WCI  16
RAWLINS        FAIR      20   8  60 SW13      29.75S WCI   7
SARATOGA       FAIR      23   3  42 SW9G17    29.76S WCI  13
LARAMIE        FAIR      21   4  47 S17       29.69R WCI   7
CHEYENNE       FAIR      27   8  44 S8        29.74S WCI  19
TORRINGTON     FAIR      31  10  41 W20G29    29.78F WCI  19
PINE BLUFFS    FAIR      32   7  34 SW8       29.79R WCI  25

$$




USA.gov is the U.S. government's official web portal to all federal, state and local government web resources and services.